STARLINK-1588 (46118 NORAD) Tracking and Keplerian Element Data

This shows tracking and keplerian element data for the satellite.

Feedback or suggestion? Click here.




ElementValue
Catalog46118
NameSTARLINK-1588
Epoch Orbit176
Epoch Day338.66668981
Epoch Year2020
RAAN304.9117
Inclination52.9999
Eccentricity0.0001809
Argument of Perigee66.3221
Mean Anonmoly230.9009
Mean Motion15.05588817
Decay Rate-5.61E-05
L11 46118U 20057B 20338.66668981 -.00005610 00000-0 -36604-3 0 9996
L22 46118 52.9999 304.9117 0001809 66.3221 230.9009 15.05588817 1763

Live tracking and technical data element details for STARLINK-1588 (NORAD 46118). STARLINK-1588 can be tracked NOW for your location showing map with azimuth and elevation plus other details from your city location.

Track the satellite on the map from your city or location and see movement details for azimuth, elevation, latitude, longitude, range, height, and movement on the map or in text.







IsCatalogInMostPopularTable: catalog: 46118, numindb: 21
Update: records affected: 1



GetName: 46118 STARLINK-1588

Hit Count: updated at: Sun, 06 Dec 2020 01:07:09 GMT